Tracking 31027 objects as of 19-Jul-2025
HD Live streaming from Space Station
objects crossing your sky now

QUAKESAT

Track QUAKESAT now!
10-day predictions
QUAKESAT is classified as:


NORAD ID: 27845
Int'l Code: 2003-031F
Perigee: 810.0 km
Apogee: 824.3 km
Inclination: 98.7 °
Period: 101.1 minutes
Semi major axis: 7188 km
RCS: 0.2303 m2 (medium)
Launch date: June 30, 2003
Source: United States (US)
Launch site: PLESETSK MISSILE AND SPACE COMPLEX (PKMTR)

Uplink (MHz):
Downlink (MHz): 436.682
Beacon (MHz):
Mode: 9600bps FSK
Call sign: KD7OVB
Status: Inactive


Nanosatellite; research on early warning for earthquakes.
Your satellite tracking list
IRIDIUM 135
Track 1 satellite(s)




NASA's NSSDC Master Catalog

Two Line Element Set (TLE):
1 27845U 03031F   25199.44083067  .00000316  00000-0  15481-3 0  9993
2 27845  98.6657 207.5472 0009993  93.5218 266.7104 14.24543580144083
Source of the keplerian elements: AFSPC